| time (UTC) | temp F | wind direction | speed MPH | gust MPH | rain 1hr in | rain 24hr in | rain mn in | humidity % | barometer mb |
| 20260509180951 | 75 | 239 | 8.0 | 16.0 | 0.00 | 0.00 | 0.00 | 39 | 1004.4 |
| 20260509180446 | 75 | 223 | 3.0 | 9.0 | 0.00 | 0.00 | 0.00 | 42 | 1004.5 |
| 20260509175943 | 75 | 225 | 13.0 | 21.0 | 0.00 | 0.00 | 0.00 | 37 | 1004.2 |
| 20260509175439 | 73 | 222 | 4.0 | 13.0 | 0.00 | 0.00 | 0.00 | 45 | 1004.7 |
| 20260509174936 | 72 | 227 | 4.0 | 14.0 | 0.00 | 0.00 | 0.00 | 43 | 1005.0 |
| 20260509174432 | 72 | 268 | 5.0 | 12.0 | 0.00 | 0.00 | 0.00 | 42 | 1004.6 |
| 20260509173927 | 72 | 226 | 5.0 | 18.0 | 0.00 | 0.00 | 0.00 | 43 | 1004.7 |
| 20260509173421 | 73 | 257 | 2.0 | 15.0 | 0.00 | 0.00 | 0.00 | 44 | 1004.8 |
| 20260509172918 | 72 | 242 | 9.0 | 22.0 | 0.00 | 0.00 | 0.00 | 43 | 1004.8 |
| 20260509172415 | 72 | 288 | 6.0 | 11.0 | 0.00 | 0.00 | 0.00 | 47 | 1004.8 |
| 20260509171911 | 71 | 226 | 16.0 | 20.0 | 0.00 | 0.00 | 0.00 | 44 | 1004.7 |
| 20260509171407 | 72 | 290 | 5.0 | 11.0 | 0.00 | 0.00 | 0.00 | 48 | 1004.9 |
| 20260509170903 | 70 | 235 | 6.0 | 22.0 | 0.00 | 0.00 | 0.00 | 51 | 1005.0 |
| 20260509170359 | 70 | 243 | 8.0 | 12.0 | 0.00 | 0.00 | 0.00 | 53 | 1004.7 |
| 20260509165855 | 70 | 236 | 6.0 | 11.0 | 0.00 | 0.00 | 0.00 | 53 | 1004.6 |
| 20260509165349 | 71 | 251 | 8.0 | 12.0 | 0.00 | 0.00 | 0.00 | 53 | 1004.8 |
| 20260509164845 | 70 | 236 | 6.0 | 8.0 | 0.00 | 0.00 | 0.00 | 59 | 1004.7 |
| 20260509164341 | 69 | 219 | 5.0 | 15.0 | 0.00 | 0.00 | 0.00 | 60 | 1004.9 |
| 20260509163838 | 68 | 224 | 4.0 | 13.0 | 0.00 | 0.00 | 0.00 | 61 | 1004.7 |
| 20260509163334 | 69 | 237 | 5.0 | 11.0 | 0.00 | 0.00 | 0.00 | 58 | 1005.0 |
| 20260509162833 | 68 | 192 | 7.0 | 9.0 | 0.00 | 0.00 | 0.00 | 61 | 1004.8 |
| 20260509162326 | 68 | 246 | 4.0 | 11.0 | 0.00 | 0.00 | 0.00 | 63 | 1004.9 |
| 20260509161823 | 68 | 253 | 4.0 | 9.0 | 0.00 | 0.00 | 0.00 | 65 | 1005.1 |
| 20260509161319 | 67 | 236 | 5.0 | 11.0 | 0.00 | 0.00 | 0.00 | 65 | 1004.9 |
| 20260509160815 | 66 | 233 | 9.0 | 13.0 | 0.00 | 0.00 | 0.00 | 67 | 1004.9 |
| 20260509160311 | 66 | 300 | 2.0 | 15.0 | 0.00 | 0.00 | 0.00 | 69 | 1005.0 |
| 20260509155806 | 65 | 231 | 7.0 | 16.0 | 0.00 | 0.00 | 0.00 | 68 | 1005.1 |
| 20260509155306 | 66 | 253 | 3.0 | 9.0 | 0.00 | 0.00 | 0.00 | 69 | 1005.0 |
| 20260509154759 | 65 | 212 | 7.0 | 16.0 | 0.00 | 0.00 | 0.00 | 70 | 1004.9 |
| 20260509154256 | 64 | 256 | 10.0 | 15.0 | 0.00 | 0.00 | 0.00 | 70 | 1005.2 |
| 20260509153753 | 64 | 210 | 10.0 | 15.0 | 0.00 | 0.00 | 0.00 | 72 | 1005.0 |
| 20260509153249 | 64 | 228 | 5.0 | 12.0 | 0.00 | 0.00 | 0.00 | 72 | 1005.1 |
| 20260509152746 | 64 | 214 | 2.0 | 16.0 | 0.00 | 0.00 | 0.00 | 72 | 1005.1 |
| 20260509152242 | 64 | 258 | 9.0 | 9.0 | 0.00 | 0.00 | 0.00 | 72 | 1005.2 |
| 20260509151739 | 64 | 251 | 4.0 | 9.0 | 0.00 | 0.00 | 0.00 | 72 | 1005.2 |
| 20260509151236 | 64 | 261 | 4.0 | 10.0 | 0.00 | 0.00 | 0.00 | 72 | 1005.2 |
| 20260509150734 | 64 | 261 | 3.0 | 10.0 | 0.00 | 0.00 | 0.00 | 73 | 1005.3 |
| 20260509150232 | 63 | 246 | 6.0 | 11.0 | 0.00 | 0.00 | 0.00 | 74 | 1005.2 |
| 20260509145728 | 62 | 241 | 7.0 | 13.0 | 0.00 | 0.00 | 0.00 | 74 | 1005.2 |
| 20260509145223 | 62 | 214 | 8.0 | 19.0 | 0.00 | 0.00 | 0.00 | 75 | 1004.9 |
| 20260509144719 | 62 | 222 | 13.0 | 13.0 | 0.00 | 0.00 | 0.00 | 77 | 1005.0 |
| 20260509144216 | 61 | 257 | 6.0 | 13.0 | 0.00 | 0.00 | 0.00 | 78 | 1004.9 |
| 20260509143714 | 60 | 253 | 9.0 | 11.0 | 0.00 | 0.00 | 0.00 | 79 | 1004.9 |
| 20260509143211 | 60 | 210 | 4.0 | 17.0 | 0.00 | 0.00 | 0.00 | 80 | 1005.1 |
| 20260509142706 | 60 | 240 | 7.0 | 18.0 | 0.00 | 0.00 | 0.00 | 79 | 1004.9 |
| 20260509142203 | 60 | 232 | 5.0 | 10.0 | 0.00 | 0.00 | 0.00 | 80 | 1005.2 |
| 20260509141659 | 60 | 241 | 6.0 | 12.0 | 0.00 | 0.00 | 0.00 | 80 | 1005.2 |
| 20260509141156 | 59 | 238 | 10.0 | 15.0 | 0.00 | 0.00 | 0.00 | 81 | 1005.3 |
| 20260509140652 | 60 | 247 | 5.0 | 10.0 | 0.00 | 0.00 | 0.00 | 80 | 1005.1 |
| 20260509140151 | 59 | 232 | 5.0 | 15.0 | 0.00 | 0.00 | 0.00 | 81 | 1005.0 |
| 20260509135648 | 59 | 240 | 7.0 | 16.0 | 0.00 | 0.00 | 0.00 | 82 | 1004.8 |
| 20260509135146 | 58 | 227 | 5.0 | 11.0 | 0.00 | 0.00 | 0.00 | 83 | 1004.9 |
| 20260509134642 | 58 | 212 | 1.0 | 11.0 | 0.00 | 0.00 | 0.00 | 83 | 1004.8 |
| 20260509134139 | 58 | 224 | 5.0 | 8.0 | 0.00 | 0.00 | 0.00 | 82 | 1004.9 |
| 20260509133636 | 58 | 252 | 4.0 | 17.0 | 0.00 | 0.00 | 0.00 | 83 | 1004.9 |
| 20260509133134 | 58 | 241 | 5.0 | 10.0 | 0.00 | 0.00 | 0.00 | 83 | 1005.2 |
| 20260509132632 | 57 | 214 | 6.0 | 16.0 | 0.00 | 0.00 | 0.00 | 84 | 1005.1 |
| 20260509132130 | 57 | 201 | 8.0 | 12.0 | 0.00 | 0.00 | 0.00 | 84 | 1005.1 |
| 20260509131626 | 57 | 258 | 7.0 | 24.0 | 0.00 | 0.00 | 0.00 | 85 | 1005.0 |
| 20260509131123 | 57 | 228 | 3.0 | 10.0 | 0.00 | 0.00 | 0.00 | 85 | 1004.7 |
| 20260509130619 | 57 | 233 | 3.0 | 12.0 | 0.00 | 0.00 | 0.00 | 87 | 1005.0 |
| 20260509130115 | 56 | 241 | 2.0 | 8.0 | 0.00 | 0.00 | 0.00 | 88 | 1004.7 |
| 20260509125612 | 55 | 242 | 4.0 | 14.0 | 0.00 | 0.00 | 0.00 | 90 | 1005.0 |
| 20260509125109 | 55 | 204 | 9.0 | 9.0 | 0.00 | 0.00 | 0.00 | 91 | 1005.0 |
| 20260509124605 | 54 | 214 | 4.0 | 10.0 | 0.00 | 0.00 | 0.00 | 92 | 1004.9 |
| 20260509124102 | 54 | 194 | 7.0 | 12.0 | 0.00 | 0.00 | 0.00 | 94 | 1005.0 |
| 20260509123600 | 53 | 252 | 7.0 | 13.0 | 0.00 | 0.00 | 0.00 | 95 | 1005.0 |
| 20260509123056 | 53 | 220 | 2.0 | 7.0 | 0.00 | 0.00 | 0.00 | 96 | 1004.8 |
| 20260509122552 | 52 | 217 | 3.0 | 9.0 | 0.00 | 0.00 | 0.00 | 97 | 1004.8 |
| 20260509122050 | 51 | 210 | 7.0 | 14.0 | 0.00 | 0.00 | 0.00 | 97 | 1005.1 |
| 20260509121546 | 51 | 169 | 3.0 | 10.0 | 0.00 | 0.00 | 0.00 | 98 | 1004.8 |
| 20260509121048 | 52 | 182 | 7.0 | 9.0 | 0.00 | 0.00 | 0.00 | 98 | 1004.8 |
| 20260509120542 | 51 | 207 | 1.0 | 8.0 | 0.00 | 0.00 | 0.00 | 99 | 1004.8 |
| 20260509120040 | 51 | 194 | 5.0 | 9.0 | 0.00 | 0.00 | 0.00 | 99 | 1004.7 |
| 20260509115536 | 51 | 204 | 9.0 | 12.0 | 0.00 | 0.00 | 0.00 | 99 | 1005.0 |
| 20260509115034 | 50 | 225 | 3.0 | 3.0 | 0.00 | 0.00 | 0.00 | 99 | 1005.0 |
| 20260509114532 | 50 | 275 | 3.0 | 7.0 | 0.00 | 0.00 | 0.00 | 99 | 1005.0 |
| 20260509114031 | 50 | 331 | 2.0 | 7.0 | 0.00 | 0.00 | 0.00 | 99 | 1004.5 |
| 20260509113529 | 50 | 220 | 6.0 | 9.0 | 0.00 | 0.00 | 0.00 | 99 | 1004.1 |
| 20260509113027 | 50 | 202 | 5.0 | 9.0 | 0.00 | 0.00 | 0.00 | 99 | 1004.2 |
| 20260509112523 | 50 | 204 | 2.0 | 9.0 | 0.00 | 0.00 | 0.00 | 99 | 1004.0 |
| 20260509112019 | 50 | 207 | 5.0 | 11.0 | 0.00 | 0.00 | 0.00 | 99 | 1004.0 |
| 20260509111517 | 50 | 223 | 5.0 | 12.0 | 0.00 | 0.00 | 0.00 | 99 | 1004.1 |
| 20260509111014 | 50 | 214 | 5.0 | 13.0 | 0.00 | 0.00 | 0.00 | 99 | 1004.3 |
| 20260509110510 | 50 | 209 | 5.0 | 9.0 | 0.00 | 0.00 | 0.00 | 99 | 1004.3 |
| 20260509110008 | 50 | 212 | 4.0 | 13.0 | 0.00 | 0.00 | 0.00 | 99 | 1004.1 |
| 20260509105506 | 50 | 197 | 9.0 | 15.0 | 0.00 | 0.00 | 0.00 | 99 | 1004.3 |
| 20260509105004 | 50 | 207 | 10.0 | 11.0 | 0.00 | 0.00 | 0.00 | 99 | 1004.2 |
| 20260509104500 | 50 | 173 | 3.0 | 11.0 | 0.00 | 0.00 | 0.00 | 99 | 1004.3 |
| 20260509103957 | 50 | 137 | 2.0 | 13.0 | 0.00 | 0.00 | 0.00 | 99 | 1004.2 |
| 20260509103455 | 50 | 173 | 5.0 | 8.0 | 0.00 | 0.00 | 0.00 | 99 | 1004.4 |
| 20260509102953 | 50 | 194 | 5.0 | 13.0 | 0.00 | 0.00 | 0.00 | 99 | 1004.2 |
| 20260509102450 | 50 | 203 | 6.0 | 10.0 | 0.00 | 0.00 | 0.00 | 99 | 1004.6 |
| 20260509101946 | 50 | 189 | 3.0 | 10.0 | 0.00 | 0.00 | 0.00 | 98 | 1004.5 |
| 20260509101442 | 50 | 192 | 3.0 | 9.0 | 0.00 | 0.00 | 0.00 | 98 | 1004.7 |
| 20260509100940 | 50 | 213 | 4.0 | 10.0 | 0.00 | 0.00 | 0.00 | 98 | 1004.5 |
| 20260509100437 | 50 | 201 | 9.0 | 11.0 | 0.00 | 0.00 | 0.00 | 98 | 1004.6 |
| 20260509095933 | 50 | 202 | 2.0 | 13.0 | 0.00 | 0.00 | 0.00 | 98 | 1004.8 |
| 20260509095431 | 50 | 201 | 6.0 | 12.0 | 0.00 | 0.00 | 0.00 | 98 | 1004.6 |
| 20260509094928 | 50 | 193 | 9.0 | 12.0 | 0.00 | 0.00 | 0.00 | 98 | 1004.8 |
| 20260509094424 | 50 | 197 | 2.0 | 9.0 | 0.00 | 0.00 | 0.00 | 98 | 1004.7 |
| 20260509093922 | 50 | 203 | 3.0 | 8.0 | 0.00 | 0.00 | 0.00 | 98 | 1004.8 |
| 20260509093419 | 50 | 202 | 4.0 | 7.0 | 0.00 | 0.00 | 0.00 | 98 | 1004.8 |
| 20260509092917 | 50 | 181 | 2.0 | 10.0 | 0.00 | 0.00 | 0.00 | 98 | 1004.6 |
| 20260509092415 | 50 | 214 | 5.0 | 10.0 | 0.00 | 0.00 | 0.00 | 98 | 1005.0 |
| 20260509091913 | 50 | 192 | 2.0 | 6.0 | 0.00 | 0.00 | 0.00 | 98 | 1004.9 |
| 20260509091409 | 50 | 211 | 2.0 | 7.0 | 0.00 | 0.00 | 0.00 | 98 | 1004.9 |
| 20260509090907 | 50 | 212 | 7.0 | 9.0 | 0.00 | 0.00 | 0.00 | 98 | 1005.0 |
| 20260509090404 | 50 | 195 | 4.0 | 7.0 | 0.00 | 0.00 | 0.00 | 97 | 1005.3 |
| 20260509085901 | 51 | 222 | 3.0 | 7.0 | 0.00 | 0.00 | 0.00 | 97 | 1005.0 |
| 20260509085358 | 51 | 212 | 5.0 | 8.0 | 0.00 | 0.00 | 0.00 | 97 | 1005.0 |
| 20260509084854 | 51 | 216 | 2.0 | 9.0 | 0.00 | 0.00 | 0.00 | 97 | 1005.2 |
| 20260509084351 | 51 | 211 | 5.0 | 8.0 | 0.00 | 0.00 | 0.00 | 97 | 1005.0 |
| 20260509083849 | 51 | 254 | 1.0 | 7.0 | 0.00 | 0.00 | 0.00 | 97 | 1005.1 |
| 20260509083346 | 51 | 211 | 3.0 | 7.0 | 0.00 | 0.00 | 0.00 | 97 | 1005.2 |
| 20260509082842 | 51 | 208 | 3.0 | 8.0 | 0.00 | 0.00 | 0.00 | 97 | 1005.0 |
| 20260509082339 | 51 | 203 | 3.0 | 7.0 | 0.00 | 0.00 | 0.00 | 96 | 1005.2 |
| 20260509081837 | 51 | 199 | 5.0 | 7.0 | 0.00 | 0.00 | 0.00 | 96 | 1004.9 |
| 20260509081333 | 51 | 208 | 3.0 | 6.0 | 0.00 | 0.00 | 0.00 | 96 | 1005.0 |
| 20260509080832 | 51 | 197 | 3.0 | 10.0 | 0.00 | 0.00 | 0.00 | 96 | 1004.9 |
| 20260509080329 | 51 | 214 | 4.0 | 8.0 | 0.00 | 0.00 | 0.00 | 96 | 1005.1 |
| 20260509075827 | 51 | 216 | 7.0 | 10.0 | 0.00 | 0.00 | 0.00 | 96 | 1005.0 |
| 20260509075324 | 51 | 211 | 6.0 | 9.0 | 0.00 | 0.00 | 0.00 | 95 | 1004.9 |
| 20260509074821 | 51 | 220 | 2.0 | 9.0 | 0.00 | 0.00 | 0.00 | 95 | 1005.2 |
| 20260509074319 | 51 | 226 | 3.0 | 7.0 | 0.00 | 0.00 | 0.00 | 95 | 1005.0 |
| 20260509073815 | 51 | 200 | 6.0 | 9.0 | 0.00 | 0.00 | 0.00 | 95 | 1005.2 |
| 20260509073311 | 51 | 210 | 5.0 | 9.0 | 0.00 | 0.00 | 0.00 | 95 | 1005.2 |
| 20260509072808 | 51 | 215 | 4.0 | 7.0 | 0.00 | 0.00 | 0.00 | 94 | 1005.3 |
| 20260509072306 | 51 | 206 | 4.0 | 4.0 | 0.00 | 0.00 | 0.00 | 94 | 1005.6 |
| 20260509071801 | 52 | 220 | 5.0 | 6.0 | 0.00 | 0.00 | 0.00 | 94 | 1005.6 |
| 20260509071258 | 52 | 210 | 2.0 | 9.0 | 0.00 | 0.00 | 0.00 | 94 | 1005.5 |
| 20260509070755 | 52 | 205 | 5.0 | 9.0 | 0.00 | 0.00 | 0.00 | 94 | 1005.4 |
| 20260509070252 | 52 | 239 | 2.0 | 6.0 | 0.00 | 0.00 | 0.00 | 93 | 1005.7 |
| 20260509065748 | 52 | 210 | 7.0 | 12.0 | 0.00 | 0.00 | 0.00 | 93 | 1005.6 |
| 20260509065245 | 52 | 210 | 5.0 | 9.0 | 0.00 | 0.00 | 0.00 | 93 | 1005.5 |
| 20260509064741 | 52 | 229 | 3.0 | 11.0 | 0.00 | 0.00 | 0.00 | 92 | 1005.6 |
| 20260509064239 | 52 | 201 | 5.0 | 10.0 | 0.00 | 0.00 | 0.00 | 93 | 1005.7 |
| 20260509063736 | 52 | 221 | 2.0 | 8.0 | 0.00 | 0.00 | 0.00 | 92 | 1005.8 |
| 20260509063232 | 53 | 253 | 2.0 | 9.0 | 0.00 | 0.00 | 0.00 | 92 | 1005.6 |
| 20260509062729 | 53 | 218 | 4.0 | 11.0 | 0.00 | 0.00 | 0.00 | 92 | 1005.7 |
| 20260509062226 | 53 | 224 | 3.0 | 6.0 | 0.00 | 0.00 | 0.00 | 92 | 1005.7 |
| 20260509061723 | 53 | 211 | 5.0 | 12.0 | 0.00 | 0.00 | 0.00 | 92 | 1005.6 |
| 20260509061221 | 53 | 269 | 0.0 | 5.0 | 0.00 | 0.00 | 0.00 | 92 | 1005.8 |
| 20260509060719 | 53 | 220 | 5.0 | 6.0 | 0.00 | 0.00 | 0.00 | 92 | 1006.1 |
| 20260509060214 | 53 | 192 | 3.0 | 10.0 | 0.00 | 0.00 | 0.00 | 91 | 1006.2 |
| 20260509055710 | 53 | 186 | 3.0 | 5.0 | 0.00 | 0.00 | 0.00 | 91 | 1006.1 |
| 20260509055206 | 53 | 209 | 2.0 | 7.0 | 0.00 | 0.00 | 0.00 | 91 | 1006.5 |
| 20260509054703 | 53 | 247 | 3.0 | 6.0 | 0.00 | 0.00 | 0.00 | 91 | 1006.3 |
| 20260509054201 | 53 | 241 | 2.0 | 7.0 | 0.00 | 0.00 | 0.00 | 91 | 1006.5 |
| 20260509053659 | 53 | 201 | 6.0 | 6.0 | 0.00 | 0.00 | 0.00 | 91 | 1006.3 |
| 20260509053155 | 54 | 199 | 5.0 | 8.0 | 0.00 | 0.00 | 0.00 | 90 | 1006.2 |
| 20260509052653 | 54 | 243 | 3.0 | 15.0 | 0.00 | 0.00 | 0.00 | 90 | 1006.2 |
| 20260509052151 | 54 | 216 | 3.0 | 10.0 | 0.00 | 0.00 | 0.00 | 90 | 1006.3 |
| 20260509051648 | 54 | 206 | 10.0 | 11.0 | 0.00 | 0.00 | 0.00 | 90 | 1006.5 |
| 20260509051145 | 54 | 214 | 3.0 | 4.0 | 0.00 | 0.00 | 0.00 | 90 | 1006.3 |
| 20260509050642 | 54 | 207 | 3.0 | 10.0 | 0.00 | 0.00 | 0.00 | 90 | 1006.1 |
| 20260509050139 | 55 | 209 | 4.0 | 10.0 | 0.00 | 0.00 | 0.00 | 89 | 1006.0 |
| 20260509045636 | 55 | 212 | 4.0 | 12.0 | 0.00 | 0.00 | 0.00 | 89 | 1006.2 |
| 20260509045133 | 55 | 204 | 4.0 | 8.0 | 0.00 | 0.00 | 0.00 | 89 | 1006.2 |
| 20260509044630 | 55 | 213 | 4.0 | 9.0 | 0.00 | 0.00 | 0.00 | 89 | 1006.5 |
| 20260509044128 | 55 | 208 | 5.0 | 9.0 | 0.00 | 0.00 | 0.00 | 88 | 1006.4 |
| 20260509043624 | 55 | 238 | 2.0 | 9.0 | 0.00 | 0.00 | 0.00 | 88 | 1006.5 |
| 20260509043120 | 55 | 213 | 4.0 | 6.0 | 0.00 | 0.00 | 0.00 | 88 | 1006.5 |
| 20260509042616 | 55 | 203 | 7.0 | 12.0 | 0.00 | 0.00 | 0.00 | 87 | 1006.7 |
| 20260509042112 | 55 | 201 | 3.0 | 8.0 | 0.00 | 0.00 | 0.00 | 87 | 1006.5 |
| 20260509041609 | 55 | 225 | 1.0 | 7.0 | 0.00 | 0.00 | 0.00 | 86 | 1006.4 |
| 20260509041107 | 55 | 203 | 3.0 | 9.0 | 0.00 | 0.00 | 0.00 | 86 | 1006.6 |
| 20260509040605 | 56 | 225 | 4.0 | 10.0 | 0.00 | 0.00 | 0.00 | 85 | 1006.4 |
| 20260509035558 | 56 | 199 | 4.0 | 9.0 | 0.00 | 0.00 | 0.00 | 84 | 1006.6 |
| 20260509035055 | 56 | 217 | 8.0 | 13.0 | 0.00 | 0.00 | 0.00 | 83 | 1006.6 |
| 20260509034553 | 56 | 166 | 8.0 | 10.0 | 0.00 | 0.00 | 0.00 | 83 | 1006.6 |
| 20260509034050 | 57 | 194 | 3.0 | 15.0 | 0.00 | 0.00 | 0.00 | 82 | 1006.7 |
| 20260509033547 | 57 | 187 | 7.0 | 11.0 | 0.00 | 0.00 | 0.00 | 81 | 1006.7 |
| 20260509033044 | 57 | 221 | 5.0 | 8.0 | 0.00 | 0.00 | 0.00 | 80 | 1006.6 |
| 20260509032541 | 57 | 244 | 5.0 | 14.0 | 0.00 | 0.00 | 0.00 | 79 | 1007.0 |
| 20260509032038 | 57 | 223 | 6.0 | 12.0 | 0.00 | 0.00 | 0.00 | 79 | 1006.6 |
| 20260509031536 | 57 | 218 | 5.0 | 11.0 | 0.00 | 0.00 | 0.00 | 78 | 1006.5 |
| 20260509031033 | 57 | 209 | 2.0 | 13.0 | 0.00 | 0.00 | 0.00 | 77 | 1006.6 |
| 20260509030531 | 58 | 210 | 6.0 | 13.0 | 0.00 | 0.00 | 0.00 | 77 | 1006.8 |
| 20260509030027 | 58 | 204 | 3.0 | 11.0 | 0.00 | 0.00 | 0.00 | 76 | 1006.7 |
| 20260509025523 | 58 | 178 | 2.0 | 13.0 | 0.00 | 0.00 | 0.00 | 76 | 1006.8 |
| 20260509025019 | 58 | 220 | 2.0 | 9.0 | 0.00 | 0.00 | 0.00 | 76 | 1006.7 |
| 20260509024515 | 58 | 225 | 2.0 | 10.0 | 0.00 | 0.00 | 0.00 | 76 | 1006.6 |
| 20260509024012 | 58 | 197 | 3.0 | 7.0 | 0.00 | 0.00 | 0.00 | 76 | 1006.8 |
| 20260509023509 | 58 | 246 | 0.0 | 9.0 | 0.00 | 0.00 | 0.00 | 76 | 1006.7 |
| 20260509023006 | 58 | 199 | 3.0 | 9.0 | 0.00 | 0.00 | 0.00 | 76 | 1007.0 |
| 20260509022502 | 58 | 210 | 3.0 | 7.0 | 0.00 | 0.00 | 0.00 | 76 | 1006.8 |
| 20260509022000 | 59 | 188 | 1.0 | 7.0 | 0.00 | 0.00 | 0.00 | 75 | 1006.9 |
| 20260509021457 | 59 | 212 | 3.0 | 8.0 | 0.00 | 0.00 | 0.00 | 75 | 1007.0 |
| 20260509020954 | 59 | 215 | 7.0 | 10.0 | 0.00 | 0.00 | 0.00 | 75 | 1007.0 |
| 20260509020453 | 59 | 215 | 8.0 | 10.0 | 0.00 | 0.00 | 0.00 | 74 | 1006.7 |
| 20260509015949 | 59 | 213 | 5.0 | 7.0 | 0.00 | 0.00 | 0.00 | 74 | 1006.5 |
| 20260509015448 | 60 | 208 | 3.0 | 8.0 | 0.00 | 0.00 | 0.00 | 73 | 1006.6 |
| 20260509014944 | 60 | 183 | 6.0 | 9.0 | 0.00 | 0.00 | 0.00 | 72 | 1006.3 |
| 20260509014441 | 60 | 195 | 6.0 | 10.0 | 0.00 | 0.00 | 0.00 | 70 | 1006.3 |
| 20260509013937 | 60 | 173 | 4.0 | 11.0 | 0.00 | 0.00 | 0.00 | 69 | 1006.3 |
| 20260509013434 | 60 | 220 | 7.0 | 12.0 | 0.00 | 0.00 | 0.00 | 66 | 1006.6 |
| 20260509012930 | 61 | 177 | 3.0 | 7.0 | 0.00 | 0.00 | 0.00 | 63 | 1006.2 |
| 20260509012427 | 61 | 207 | 3.0 | 6.0 | 0.00 | 0.00 | 0.00 | 61 | 1006.5 |
| 20260509011924 | 61 | 146 | 2.0 | 4.0 | 0.00 | 0.00 | 0.00 | 60 | 1006.2 |
| 20260509011421 | 62 | 214 | 3.0 | 4.0 | 0.00 | 0.00 | 0.00 | 60 | 1006.2 |
| 20260509010919 | 62 | 169 | 2.0 | 4.0 | 0.00 | 0.00 | 0.00 | 59 | 1006.1 |
| 20260509010416 | 62 | 215 | 2.0 | 5.0 | 0.00 | 0.00 | 0.00 | 59 | 1006.4 |
| 20260509005913 | 62 | 274 | 2.0 | 9.0 | 0.00 | 0.00 | 0.00 | 59 | 1006.4 |
| 20260509005411 | 62 | 200 | 4.0 | 7.0 | 0.00 | 0.00 | 0.00 | 58 | 1006.3 |
| 20260509004911 | 63 | 239 | 3.0 | 7.0 | 0.00 | 0.00 | 0.00 | 58 | 1006.2 |
| 20260509004408 | 63 | 226 | 4.0 | 9.0 | 0.00 | 0.00 | 0.00 | 57 | 1006.4 |
| 20260509003906 | 63 | 233 | 2.0 | 6.0 | 0.00 | 0.00 | 0.00 | 57 | 1006.3 |
| 20260509003403 | 63 | 212 | 3.0 | 7.0 | 0.00 | 0.00 | 0.00 | 56 | 1006.2 |
| 20260509002900 | 63 | 235 | 3.0 | 7.0 | 0.00 | 0.00 | 0.00 | 56 | 1006.3 |
| 20260509002358 | 64 | 192 | 3.0 | 5.0 | 0.00 | 0.00 | 0.00 | 54 | 1006.3 |
| 20260509001855 | 64 | 211 | 3.0 | 8.0 | 0.00 | 0.00 | 0.00 | 54 | 1006.4 |
| 20260509001351 | 64 | 196 | 4.0 | 5.0 | 0.00 | 0.00 | 0.00 | 54 | 1006.3 |
| 20260509000848 | 64 | 240 | 2.0 | 8.0 | 0.00 | 0.00 | 0.00 | 54 | 1006.5 |
| 20260509000348 | 64 | 207 | 2.0 | 5.0 | 0.00 | 0.00 | 0.00 | 54 | 1006.4 |
| 20260508235842 | 64 | 211 | 3.0 | 6.0 | 0.00 | 0.00 | 0.00 | 53 | 1006.4 |
| 20260508235339 | 64 | 234 | 0.0 | 9.0 | 0.00 | 0.00 | 0.00 | 54 | 1006.4 |
| 20260508234836 | 65 | 208 | 4.0 | 6.0 | 0.00 | 0.00 | 0.00 | 53 | 1006.4 |
| 20260508234333 | 65 | 228 | 3.0 | 5.0 | 0.00 | 0.00 | 0.00 | 52 | 1006.5 |
| 20260508233831 | 66 | 235 | 3.0 | 8.0 | 0.00 | 0.00 | 0.00 | 51 | 1006.5 |
| 20260508233330 | 66 | 212 | 1.0 | 8.0 | 0.00 | 0.00 | 0.00 | 52 | 1006.5 |
| 20260508232826 | 66 | 214 | 3.0 | 8.0 | 0.00 | 0.00 | 0.00 | 52 | 1006.5 |
| 20260508232323 | 65 | 252 | 6.0 | 11.0 | 0.00 | 0.00 | 0.00 | 52 | 1006.5 |
| 20260508231822 | 66 | 207 | 3.0 | 9.0 | 0.00 | 0.00 | 0.00 | 52 | 1006.4 |
| 20260508231317 | 67 | 213 | 3.0 | 5.0 | 0.00 | 0.00 | 0.00 | 51 | 1006.4 |
| 20260508230814 | 66 | 233 | 3.0 | 8.0 | 0.00 | 0.00 | 0.00 | 52 | 1006.5 |
| 20260508230311 | 66 | 222 | 2.0 | 5.0 | 0.00 | 0.00 | 0.00 | 52 | 1006.5 |
| 20260508225809 | 67 | 221 | 3.0 | 7.0 | 0.00 | 0.00 | 0.00 | 50 | 1006.6 |
| 20260508225306 | 67 | 245 | 3.0 | 9.0 | 0.00 | 0.00 | 0.00 | 49 | 1006.4 |
| 20260508224803 | 66 | 243 | 4.0 | 10.0 | 0.00 | 0.00 | 0.00 | 48 | 1006.5 |
| 20260508224300 | 66 | 205 | 3.0 | 7.0 | 0.00 | 0.00 | 0.00 | 47 | 1006.6 |
| 20260508223758 | 67 | 203 | 4.0 | 7.0 | 0.00 | 0.00 | 0.00 | 46 | 1006.4 |
| 20260508223255 | 67 | 206 | 6.0 | 9.0 | 0.00 | 0.00 | 0.00 | 46 | 1006.7 |
| 20260508222752 | 68 | 235 | 3.0 | 6.0 | 0.00 | 0.00 | 0.00 | 47 | 1006.6 |
| 20260508222249 | 67 | 237 | 2.0 | 9.0 | 0.00 | 0.00 | 0.00 | 47 | 1006.6 |
| 20260508221746 | 66 | 216 | 3.0 | 6.0 | 0.00 | 0.00 | 0.00 | 50 | 1006.6 |
| 20260508221242 | 66 | 198 | 9.0 | 11.0 | 0.00 | 0.00 | 0.00 | 49 | 1006.7 |
| 20260508220738 | 66 | 230 | 6.0 | 12.0 | 0.00 | 0.00 | 0.00 | 47 | 1006.7 |
| 20260508220234 | 67 | 268 | 3.0 | 11.0 | 0.00 | 0.00 | 0.00 | 47 | 1006.8 |
| 20260508215731 | 66 | 242 | 3.0 | 7.0 | 0.00 | 0.00 | 0.00 | 50 | 1006.7 |
| 20260508215227 | 66 | 230 | 5.0 | 13.0 | 0.00 | 0.00 | 0.00 | 49 | 1006.8 |
| 20260508214725 | 68 | 207 | 10.0 | 13.0 | 0.00 | 0.00 | 0.00 | 48 | 1006.7 |
| 20260508214222 | 66 | 208 | 6.0 | 7.0 | 0.00 | 0.00 | 0.00 | 49 | 1006.8 |
| 20260508213718 | 66 | 195 | 8.0 | 12.0 | 0.00 | 0.00 | 0.00 | 52 | 1006.8 |
| 20260508213215 | 66 | 219 | 4.0 | 9.0 | 0.00 | 0.00 | 0.00 | 52 | 1006.5 |
| 20260508212712 | 66 | 224 | 7.0 | 9.0 | 0.00 | 0.00 | 0.00 | 50 | 1006.5 |
| 20260508212208 | 68 | 165 | 1.0 | 5.0 | 0.00 | 0.00 | 0.00 | 50 | 1006.6 |
| 20260508211704 | 66 | 216 | 2.0 | 11.0 | 0.00 | 0.00 | 0.00 | 54 | 1006.9 |
| 20260508211200 | 65 | 125 | 2.0 | 9.0 | 0.00 | 0.00 | 0.00 | 54 | 1006.9 |
| 20260508210657 | 65 | 60 | 2.0 | 8.0 | 0.00 | 0.00 | 0.00 | 56 | 1006.8 |
| 20260508210154 | 65 | 150 | 5.0 | 9.0 | 0.00 | 0.00 | 0.00 | 55 | 1006.8 |
| 20260508205651 | 65 | 211 | 5.0 | 8.0 | 0.00 | 0.00 | 0.00 | 56 | 1007.0 |
| 20260508205147 | 65 | 196 | 3.0 | 8.0 | 0.00 | 0.00 | 0.00 | 56 | 1007.0 |
| 20260508204644 | 66 | 186 | 2.0 | 9.0 | 0.00 | 0.00 | 0.00 | 55 | 1007.1 |
| 20260508204140 | 66 | 179 | 4.0 | 10.0 | 0.00 | 0.00 | 0.00 | 55 | 1007.0 |
| 20260508203636 | 66 | 181 | 4.0 | 12.0 | 0.00 | 0.00 | 0.00 | 56 | 1007.0 |
| 20260508203132 | 68 | 139 | 5.0 | 10.0 | 0.00 | 0.00 | 0.00 | 51 | 1007.1 |
| 20260508202629 | 67 | 135 | 2.0 | 9.0 | 0.00 | 0.00 | 0.00 | 51 | 1007.2 |
| 20260508202126 | 67 | 212 | 9.0 | 13.0 | 0.00 | 0.00 | 0.00 | 50 | 1007.3 |
| 20260508201623 | 67 | 186 | 3.0 | 6.0 | 0.00 | 0.00 | 0.00 | 51 | 1007.4 |
| 20260508201119 | 66 | 161 | 1.0 | 9.0 | 0.00 | 0.00 | 0.00 | 52 | 1007.3 |
| 20260508200616 | 67 | 213 | 4.0 | 8.0 | 0.00 | 0.00 | 0.00 | 51 | 1007.6 |
| 20260508200112 | 67 | 221 | 5.0 | 6.0 | 0.00 | 0.00 | 0.00 | 49 | 1007.8 |
| 20260508195609 | 67 | 199 | 3.0 | 7.0 | 0.00 | 0.00 | 0.00 | 49 | 1007.7 |
| 20260508195105 | 66 | 205 | 7.0 | 7.0 | 0.00 | 0.00 | 0.00 | 51 | 1007.7 |
| 20260508194602 | 68 | 196 | 5.0 | 6.0 | 0.00 | 0.00 | 0.00 | 45 | 1007.8 |
| 20260508194059 | 68 | 240 | 2.0 | 5.0 | 0.00 | 0.00 | 0.00 | 44 | 1008.2 |
| 20260508193556 | 67 | 206 | 5.0 | 9.0 | 0.00 | 0.00 | 0.00 | 46 | 1008.0 |
| 20260508193053 | 66 | 187 | 2.0 | 7.0 | 0.00 | 0.00 | 0.00 | 50 | 1007.9 |
| 20260508192549 | 65 | 165 | 3.0 | 10.0 | 0.00 | 0.00 | 0.00 | 54 | 1008.1 |
| 20260508192046 | 64 | 123 | 5.0 | 9.0 | 0.00 | 0.00 | 0.00 | 54 | 1008.2 |
| 20260508191543 | 64 | 114 | 6.0 | 8.0 | 0.00 | 0.00 | 0.00 | 54 | 1008.4 |
| 20260508191039 | 66 | 211 | 3.0 | 8.0 | 0.00 | 0.00 | 0.00 | 53 | 1008.2 |
| 20260508190537 | 66 | 125 | 3.0 | 10.0 | 0.00 | 0.00 | 0.00 | 50 | 1008.4 |
| 20260508190033 | 65 | 139 | 9.0 | 11.0 | 0.00 | 0.00 | 0.00 | 52 | 1008.4 |
| 20260508185531 | 65 | 177 | 4.0 | 6.0 | 0.00 | 0.00 | 0.00 | 50 | 1008.4 |
| 20260508185028 | 65 | 110 | 4.0 | 11.0 | 0.00 | 0.00 | 0.00 | 48 | 1008.4 |
| 20260508184526 | 65 | 194 | 3.0 | 7.0 | 0.00 | 0.00 | 0.00 | 54 | 1008.4 |
| 20260508184022 | 65 | 133 | 10.0 | 11.0 | 0.00 | 0.00 | 0.00 | 56 | 1008.7 |
| 20260508183519 | 68 | 54 | 1.0 | 3.0 | 0.00 | 0.00 | 0.00 | 50 | 1008.7 |
| 20260508183015 | 66 | 177 | 3.0 | 7.0 | 0.00 | 0.00 | 0.00 | 51 | 1008.8 |
| 20260508182511 | 66 | 186 | 5.0 | 10.0 | 0.00 | 0.00 | 0.00 | 52 | 1008.8 |
| 20260508182008 | 65 | 240 | 2.0 | 9.0 | 0.00 | 0.00 | 0.00 | 59 | 1008.8 |
| 20260508181503 | 64 | 116 | 5.0 | 7.0 | 0.00 | 0.00 | 0.00 | 60 | 1009.1 |